Time,TemperatureF,DewpointF,PressureIn,WindDirection,WindDirectionDegrees,WindSpeedMPH,WindSpeedGustMPH,Humidity,HourlyPrecipIn,Conditions,Clouds,dailyrainin,SoftwareType,DateUTC
2013-12-02 00:00:00,30.0,21.0,29.92,WSW,257,1.0,2.0,70,0.00,,,0.00,Meteo,2013-12-02 06:00:00,
2013-12-02 00:05:00,30.0,21.0,29.92,WSW,257,0.0,3.0,70,0.00,,,0.00,Meteo,2013-12-02 06:05:00,
2013-12-02 00:10:00,30.0,21.0,29.92,WSW,257,0.0,1.0,70,0.00,,,0.00,Meteo,2013-12-02 06:10:00,
2013-12-02 00:15:00,30.0,21.0,29.92,North,0,0.0,0.0,70,0.00,,,0.00,Meteo,2013-12-02 06:15:00,
2013-12-02 00:20:00,30.0,21.0,29.92,North,0,0.0,0.0,70,0.00,,,0.00,Meteo,2013-12-02 06:20:00,
2013-12-02 00:25:00,30.0,21.0,29.92,SSW,212,1.0,2.0,70,0.00,,,0.00,Meteo,2013-12-02 06:25:00,
2013-12-02 00:30:00,30.0,21.0,29.91,SSW,212,0.0,1.0,70,0.00,,,0.00,Meteo,2013-12-02 06:30:00,
2013-12-02 00:35:00,30.0,21.0,29.91,SSW,208,0.0,1.0,70,0.00,,,0.00,Meteo,2013-12-02 06:35:00,
2013-12-02 00:40:00,30.0,21.0,29.91,North,0,0.0,0.0,70,0.00,,,0.00,Meteo,2013-12-02 06:40:00,
2013-12-02 00:45:00,30.0,21.0,29.91,SW,215,1.0,2.0,69,0.00,,,0.00,Meteo,2013-12-02 06:45:00,
2013-12-02 00:50:00,30.0,21.0,29.91,SW,227,1.0,2.0,69,0.00,,,0.00,Meteo,2013-12-02 06:50:00,
2013-12-02 00:55:00,30.0,21.0,29.91,SSW,210,0.0,2.0,70,0.00,,,0.00,Meteo,2013-12-02 06:55:00,
2013-12-02 01:00:00,30.0,21.0,29.91,SSW,207,1.0,2.0,69,0.00,,,0.00,Meteo,2013-12-02 07:00:00,
2013-12-02 01:05:00,30.0,21.0,29.91,SW,222,1.0,4.0,70,0.00,,,0.00,Meteo,2013-12-02 07:05:00,
2013-12-02 01:10:00,30.0,21.0,29.91,SW,225,0.0,1.0,70,0.00,,,0.00,Meteo,2013-12-02 07:10:00,
2013-12-02 01:15:00,30.0,21.0,29.91,North,0,0.0,0.0,70,0.00,,,0.00,Meteo,2013-12-02 07:15:00,
2013-12-02 01:20:00,30.0,21.0,29.91,North,0,0.0,0.0,70,0.00,,,0.00,Meteo,2013-12-02 07:20:00,
2013-12-02 01:25:00,30.0,21.0,29.91,North,0,0.0,0.0,70,0.00,,,0.00,Meteo,2013-12-02 07:25:00,
2013-12-02 01:30:00,30.0,21.0,29.91,North,0,0.0,0.0,70,0.00,,,0.00,Meteo,2013-12-02 07:30:00,
2013-12-02 01:35:00,30.0,22.0,29.90,SW,225,0.0,1.0,71,0.00,,,0.00,Meteo,2013-12-02 07:35:00,
2013-12-02 01:40:00,30.0,21.0,29.90,North,0,0.0,0.0,70,0.00,,,0.00,Meteo,2013-12-02 07:40:00,
2013-12-02 01:45:00,30.0,22.0,29.90,North,0,0.0,0.0,71,0.00,,,0.00,Meteo,2013-12-02 07:45:00,
2013-12-02 01:50:00,30.0,22.0,29.90,North,0,0.0,0.0,71,0.00,,,0.00,Meteo,2013-12-02 07:50:00,
2013-12-02 01:55:00,29.0,21.0,29.91,North,0,0.0,0.0,71,0.00,,,0.00,Meteo,2013-12-02 07:55:00,
2013-12-02 02:00:00,29.0,21.0,29.91,SW,225,0.0,1.0,71,0.00,,,0.00,Meteo,2013-12-02 08:00:00,
2013-12-02 02:05:00,29.0,21.0,29.91,North,0,0.0,0.0,71,0.00,,,0.00,Meteo,2013-12-02 08:05:00,
2013-12-02 02:10:00,29.0,21.0,29.91,North,0,0.0,0.0,71,0.00,,,0.00,Meteo,2013-12-02 08:10:00,
2013-12-02 02:15:00,29.0,21.0,29.91,North,0,0.0,0.0,71,0.00,,,0.00,Meteo,2013-12-02 08:15:00,
2013-12-02 02:20:00,29.0,21.0,29.90,North,0,0.0,0.0,71,0.00,,,0.00,Meteo,2013-12-02 08:20:00,
2013-12-02 02:25:00,29.0,21.0,29.90,North,0,0.0,0.0,71,0.00,,,0.00,Meteo,2013-12-02 08:25:00,
2013-12-02 02:30:00,29.0,21.0,29.90,North,0,0.0,0.0,71,0.00,,,0.00,Meteo,2013-12-02 08:30:00,
2013-12-02 02:35:00,29.0,21.0,29.90,North,0,0.0,0.0,71,0.00,,,0.00,Meteo,2013-12-02 08:35:00,
2013-12-02 02:41:00,29.0,21.0,29.89,North,0,0.0,0.0,71,0.00,,,0.00,Meteo,2013-12-02 08:41:00,
2013-12-02 02:46:00,29.0,21.0,29.89,North,0,0.0,0.0,71,0.00,,,0.00,Meteo,2013-12-02 08:46:00,
2013-12-02 02:51:00,29.0,21.0,29.89,North,0,0.0,0.0,72,0.00,,,0.00,Meteo,2013-12-02 08:51:00,
2013-12-02 02:56:00,29.0,21.0,29.88,North,0,0.0,0.0,72,0.00,,,0.00,Meteo,2013-12-02 08:56:00,
2013-12-02 03:01:00,29.0,21.0,29.88,North,0,0.0,0.0,72,0.00,,,0.00,Meteo,2013-12-02 09:01:00,
2013-12-02 03:06:00,29.0,21.0,29.88,North,0,0.0,0.0,72,0.00,,,0.00,Meteo,2013-12-02 09:06:00,
2013-12-02 03:11:00,29.0,21.0,29.88,North,0,0.0,0.0,72,0.00,,,0.00,Meteo,2013-12-02 09:11:00,
2013-12-02 03:16:00,29.0,21.0,29.88,North,0,0.0,0.0,72,0.00,,,0.00,Meteo,2013-12-02 09:16:00,
2013-12-02 03:21:00,29.0,21.0,29.88,North,0,0.0,0.0,73,0.00,,,0.00,Meteo,2013-12-02 09:21:00,
2013-12-02 03:26:00,29.0,21.0,29.88,North,0,0.0,0.0,73,0.00,,,0.00,Meteo,2013-12-02 09:26:00,
2013-12-02 03:32:00,29.0,21.0,29.88,North,0,0.0,0.0,73,0.00,,,0.00,Meteo,2013-12-02 09:32:00,
2013-12-02 03:37:00,29.0,21.0,29.88,North,0,0.0,0.0,73,0.00,,,0.00,Meteo,2013-12-02 09:37:00,
2013-12-02 03:42:00,28.0,21.0,29.88,North,0,0.0,0.0,74,0.00,,,0.00,Meteo,2013-12-02 09:42:00,
2013-12-02 03:47:00,28.0,21.0,29.88,North,0,0.0,0.0,74,0.00,,,0.00,Meteo,2013-12-02 09:47:00,
2013-12-02 03:52:00,28.0,21.0,29.88,North,0,0.0,0.0,75,0.00,,,0.00,Meteo,2013-12-02 09:52:00,
2013-12-02 03:57:00,28.0,21.0,29.88,North,0,0.0,0.0,75,0.00,,,0.00,Meteo,2013-12-02 09:57:00,
2013-12-02 04:02:00,28.0,21.0,29.88,North,0,0.0,0.0,75,0.00,,,0.00,Meteo,2013-12-02 10:02:00,
2013-12-02 04:07:00,28.0,21.0,29.87,North,0,0.0,0.0,75,0.00,,,0.00,Meteo,2013-12-02 10:07:00,
2013-12-02 04:12:00,28.0,21.0,29.87,North,0,0.0,0.0,75,0.00,,,0.00,Meteo,2013-12-02 10:12:00,
2013-12-02 04:17:00,28.0,21.0,29.87,North,0,0.0,0.0,75,0.00,,,0.00,Meteo,2013-12-02 10:17:00,
2013-12-02 04:22:00,28.0,21.0,29.87,North,0,0.0,0.0,75,0.00,,,0.00,Meteo,2013-12-02 10:22:00,
2013-12-02 04:27:00,28.0,21.0,29.86,North,0,0.0,0.0,76,0.00,,,0.00,Meteo,2013-12-02 10:27:00,
2013-12-02 04:32:00,28.0,21.0,29.86,North,0,0.0,0.0,75,0.00,,,0.00,Meteo,2013-12-02 10:32:00,
2013-12-02 04:37:00,28.0,21.0,29.86,North,0,0.0,0.0,75,0.00,,,0.00,Meteo,2013-12-02 10:37:00,
2013-12-02 04:42:00,28.0,21.0,29.86,North,0,0.0,0.0,76,0.00,,,0.00,Meteo,2013-12-02 10:42:00,
2013-12-02 04:47:00,28.0,21.0,29.86,North,0,0.0,0.0,75,0.00,,,0.00,Meteo,2013-12-02 10:47:00,
2013-12-02 04:52:00,28.0,21.0,29.85,North,0,0.0,0.0,76,0.00,,,0.00,Meteo,2013-12-02 10:52:00,
2013-12-02 04:57:00,28.0,21.0,29.85,North,0,0.0,0.0,76,0.00,,,0.00,Meteo,2013-12-02 10:57:00,
2013-12-02 05:02:00,28.0,21.0,29.85,North,0,0.0,0.0,76,0.00,,,0.00,Meteo,2013-12-02 11:02:00,
2013-12-02 05:07:00,28.0,21.0,29.85,North,0,0.0,0.0,76,0.00,,,0.00,Meteo,2013-12-02 11:07:00,
2013-12-02 05:12:00,28.0,21.0,29.85,SW,225,0.0,1.0,76,0.00,,,0.00,Meteo,2013-12-02 11:12:00,
2013-12-02 05:17:00,28.0,21.0,29.84,SSW,202,1.0,2.0,76,0.00,,,0.00,Meteo,2013-12-02 11:17:00,
2013-12-02 05:22:00,28.0,21.0,29.84,North,0,0.0,0.0,76,0.00,,,0.00,Meteo,2013-12-02 11:22:00,
2013-12-02 05:27:00,28.0,21.0,29.84,SSW,200,0.0,1.0,76,0.00,,,0.00,Meteo,2013-12-02 11:27:00,
2013-12-02 05:32:00,28.0,21.0,29.84,North,0,0.0,0.0,76,0.00,,,0.00,Meteo,2013-12-02 11:32:00,
2013-12-02 05:37:00,28.0,21.0,29.84,North,0,0.0,0.0,76,0.00,,,0.00,Meteo,2013-12-02 11:37:00,
2013-12-02 05:42:00,28.0,21.0,29.84,North,0,0.0,0.0,75,0.00,,,0.00,Meteo,2013-12-02 11:42:00,
2013-12-02 05:47:00,28.0,21.0,29.84,North,0,0.0,0.0,76,0.00,,,0.00,Meteo,2013-12-02 11:47:00,
2013-12-02 05:52:00,28.0,21.0,29.84,North,0,0.0,0.0,75,0.00,,,0.00,Meteo,2013-12-02 11:52:00,
2013-12-02 05:57:00,28.0,21.0,29.83,North,0,0.0,0.0,75,0.00,,,0.00,Meteo,2013-12-02 11:57:00,
2013-12-02 06:02:00,29.0,22.0,29.83,North,0,0.0,0.0,76,0.00,,,0.00,Meteo,2013-12-02 12:02:00,
2013-12-02 06:07:00,29.0,22.0,29.83,North,0,0.0,0.0,76,0.00,,,0.00,Meteo,2013-12-02 12:07:00,
2013-12-02 06:12:00,29.0,22.0,29.83,North,0,0.0,0.0,76,0.00,,,0.00,Meteo,2013-12-02 12:12:00,
2013-12-02 06:17:00,29.0,22.0,29.83,North,0,0.0,0.0,76,0.00,,,0.00,Meteo,2013-12-02 12:17:00,
2013-12-02 06:22:00,29.0,22.0,29.83,North,0,0.0,0.0,75,0.00,,,0.00,Meteo,2013-12-02 12:22:00,
2013-12-02 06:27:00,29.0,22.0,29.83,North,0,0.0,0.0,75,0.00,,,0.00,Meteo,2013-12-02 12:27:00,
2013-12-02 06:32:00,29.0,22.0,29.83,North,0,0.0,0.0,75,0.00,,,0.00,Meteo,2013-12-02 12:32:00,
2013-12-02 06:37:00,29.0,22.0,29.83,North,0,0.0,0.0,75,0.00,,,0.00,Meteo,2013-12-02 12:37:00,
2013-12-02 06:42:00,29.0,22.0,29.83,North,0,0.0,0.0,75,0.00,,,0.00,Meteo,2013-12-02 12:42:00,
2013-12-02 06:47:00,29.0,22.0,29.83,SSW,200,0.0,1.0,75,0.00,,,0.00,Meteo,2013-12-02 12:47:00,
2013-12-02 06:52:00,29.0,22.0,29.83,North,0,0.0,0.0,75,0.00,,,0.00,Meteo,2013-12-02 12:52:00,
2013-12-02 06:57:00,29.0,22.0,29.83,North,0,0.0,0.0,75,0.00,,,0.00,Meteo,2013-12-02 12:57:00,
2013-12-02 07:02:00,29.0,22.0,29.83,North,0,0.0,0.0,76,0.00,,,0.00,Meteo,2013-12-02 13:02:00,
2013-12-02 07:07:00,29.0,22.0,29.83,North,0,0.0,0.0,76,0.00,,,0.00,Meteo,2013-12-02 13:07:00,
2013-12-02 07:12:00,29.0,22.0,29.82,North,0,0.0,0.0,75,0.00,,,0.00,Meteo,2013-12-02 13:12:00,
2013-12-02 07:17:00,29.0,22.0,29.82,SSW,199,0.0,1.0,75,0.00,,,0.00,Meteo,2013-12-02 13:17:00,
2013-12-02 07:22:00,29.0,22.0,29.82,SSW,198,0.0,1.0,75,0.00,,,0.00,Meteo,2013-12-02 13:22:00,
2013-12-02 07:27:00,29.0,22.0,29.82,North,0,0.0,0.0,75,0.00,,,0.00,Meteo,2013-12-02 13:27:00,
2013-12-02 07:32:00,29.0,22.0,29.82,SSW,198,0.0,1.0,75,0.00,,,0.00,Meteo,2013-12-02 13:32:00,
2013-12-02 07:37:00,29.0,22.0,29.82,North,0,0.0,0.0,75,0.00,,,0.00,Meteo,2013-12-02 13:37:00,
2013-12-02 07:42:00,29.0,22.0,29.82,SSW,198,0.0,1.0,75,0.00,,,0.00,Meteo,2013-12-02 13:42:00,
2013-12-02 07:47:00,29.0,22.0,29.82,SSW,198,0.0,1.0,75,0.00,,,0.00,Meteo,2013-12-02 13:47:00,
2013-12-02 07:52:00,29.0,22.0,29.82,North,0,0.0,0.0,75,0.00,,,0.00,Meteo,2013-12-02 13:52:00,
2013-12-02 07:57:00,29.0,22.0,29.82,South,170,0.0,1.0,75,0.00,,,0.00,Meteo,2013-12-02 13:57:00,
2013-12-02 08:02:00,29.0,22.0,29.82,East,100,2.0,3.0,75,0.00,,,0.00,Meteo,2013-12-02 14:02:00,
2013-12-02 08:07:00,29.0,22.0,29.82,East,100,0.0,1.0,75,0.00,,,0.00,Meteo,2013-12-02 14:07:00,
2013-12-02 08:12:00,29.0,22.0,29.82,East,100,0.0,1.0,74,0.00,,,0.00,Meteo,2013-12-02 14:12:00,
2013-12-02 08:17:00,29.0,22.0,29.82,East,100,1.0,1.0,75,0.00,,,0.00,Meteo,2013-12-02 14:17:00,
2013-12-02 08:22:00,29.0,22.0,29.82,North,0,0.0,0.0,74,0.00,,,0.00,Meteo,2013-12-02 14:22:00,
2013-12-02 08:27:00,29.0,22.0,29.82,East,100,1.0,2.0,75,0.00,,,0.00,Meteo,2013-12-02 14:27:00,
2013-12-02 08:32:00,29.0,22.0,29.82,East,100,1.0,3.0,75,0.00,,,0.00,Meteo,2013-12-02 14:32:00,
2013-12-02 08:37:00,30.0,23.0,29.82,East,100,0.0,1.0,75,0.00,,,0.00,Meteo,2013-12-02 14:37:00,
2013-12-02 08:42:00,30.0,23.0,29.82,East,83,2.0,3.0,75,0.00,,,0.00,Meteo,2013-12-02 14:42:00,
2013-12-02 08:47:00,30.0,23.0,29.82,East,82,1.0,4.0,75,0.00,,,0.00,Meteo,2013-12-02 14:47:00,
2013-12-02 08:52:00,30.0,23.0,29.81,ENE,75,0.0,1.0,75,0.00,,,0.00,Meteo,2013-12-02 14:52:00,
2013-12-02 08:57:00,30.0,23.0,29.81,East,97,2.0,3.0,75,0.00,,,0.00,Meteo,2013-12-02 14:57:00,
2013-12-02 09:02:00,30.0,23.0,29.81,East,84,2.0,4.0,75,0.00,,,0.00,Meteo,2013-12-02 15:02:00,
2013-12-02 09:07:00,30.0,23.0,29.81,East,91,0.0,1.0,75,0.00,,,0.00,Meteo,2013-12-02 15:07:00,
2013-12-02 09:12:00,30.0,23.0,29.81,East,96,2.0,3.0,75,0.00,,,0.00,Meteo,2013-12-02 15:12:00,
2013-12-02 09:17:00,30.0,23.0,29.81,East,91,0.0,1.0,75,0.00,,,0.00,Meteo,2013-12-02 15:17:00,
2013-12-02 09:22:00,30.0,23.0,29.81,ESE,107,0.0,1.0,75,0.00,,,0.00,Meteo,2013-12-02 15:22:00,
2013-12-02 09:27:00,30.0,23.0,29.81,North,0,0.0,0.0,75,0.00,,,0.00,Meteo,2013-12-02 15:27:00,
2013-12-02 09:32:00,30.0,23.0,29.81,ESE,104,1.0,3.0,75,0.00,,,0.00,Meteo,2013-12-02 15:32:00,
2013-12-02 09:37:00,30.0,23.0,29.81,SE,124,0.0,1.0,75,0.00,,,0.00,Meteo,2013-12-02 15:37:00,
2013-12-02 09:42:00,30.0,23.0,29.81,ESE,119,0.0,1.0,75,0.00,,,0.00,Meteo,2013-12-02 15:42:00,
2013-12-02 09:47:00,30.0,23.0,29.81,North,0,0.0,0.0,75,0.00,,,0.00,Meteo,2013-12-02 15:47:00,
2013-12-02 09:52:00,31.0,24.0,29.81,ESE,103,0.0,1.0,75,0.00,,,0.00,Meteo,2013-12-02 15:52:00,
2013-12-02 09:57:00,31.0,24.0,29.81,ESE,102,0.0,1.0,75,0.00,,,0.00,Meteo,2013-12-02 15:57:00,
2013-12-02 10:02:00,31.0,24.0,29.81,North,0,0.0,0.0,75,0.00,,,0.00,Meteo,2013-12-02 16:02:00,
2013-12-02 10:07:00,31.0,24.0,29.81,East,88,0.0,1.0,74,0.00,,,0.00,Meteo,2013-12-02 16:07:00,
2013-12-02 10:12:00,31.0,24.0,29.81,North,0,0.0,0.0,74,0.00,,,0.00,Meteo,2013-12-02 16:12:00,
2013-12-02 10:17:00,31.0,24.0,29.81,North,0,0.0,0.0,74,0.00,,,0.00,Meteo,2013-12-02 16:17:00,
2013-12-02 10:22:00,31.0,24.0,29.81,North,0,0.0,0.0,74,0.00,,,0.00,Meteo,2013-12-02 16:22:00,
2013-12-02 10:27:00,32.0,24.0,29.80,East,89,1.0,2.0,73,0.00,,,0.00,Meteo,2013-12-02 16:27:00,
2013-12-02 10:32:00,32.0,24.0,29.80,East,89,1.0,2.0,73,0.00,,,0.00,Meteo,2013-12-02 16:32:00,
2013-12-02 10:37:00,32.0,24.0,29.80,East,88,1.0,2.0,72,0.00,,,0.00,Meteo,2013-12-02 16:37:00,
2013-12-02 10:42:00,32.0,24.0,29.80,ENE,72,2.0,3.0,72,0.00,,,0.00,Meteo,2013-12-02 16:42:00,
2013-12-02 10:48:00,32.0,24.0,29.80,ENE,68,0.0,1.0,72,0.00,,,0.00,Meteo,2013-12-02 16:48:00,
2013-12-02 10:53:00,32.0,24.0,29.80,ENE,68,1.0,2.0,72,0.00,,,0.00,Meteo,2013-12-02 16:53:00,
2013-12-02 10:58:00,32.0,24.0,29.80,ENE,68,1.0,2.0,72,0.00,,,0.00,Meteo,2013-12-02 16:58:00,
2013-12-02 11:03:00,33.0,25.0,29.79,ENE,66,1.0,2.0,72,0.00,,,0.00,Meteo,2013-12-02 17:03:00,
2013-12-02 11:08:00,33.0,25.0,29.79,ENE,66,0.0,2.0,72,0.00,,,0.00,Meteo,2013-12-02 17:08:00,
2013-12-02 11:13:00,33.0,25.0,29.79,North,0,0.0,0.0,71,0.00,,,0.00,Meteo,2013-12-02 17:13:00,
2013-12-02 11:18:00,33.0,25.0,29.79,North,0,0.0,0.0,71,0.00,,,0.00,Meteo,2013-12-02 17:18:00,
2013-12-02 11:23:00,33.0,25.0,29.79,SE,139,1.0,1.0,71,0.00,,,0.00,Meteo,2013-12-02 17:23:00,
2013-12-02 11:28:00,33.0,25.0,29.79,East,99,1.0,2.0,71,0.00,,,0.00,Meteo,2013-12-02 17:28:00,
2013-12-02 11:33:00,34.0,26.0,29.79,North,0,0.0,0.0,71,0.00,,,0.00,Meteo,2013-12-02 17:33:00,
2013-12-02 11:38:00,34.0,26.0,29.78,East,100,0.0,1.0,71,0.00,,,0.00,Meteo,2013-12-02 17:38:00,
2013-12-02 11:43:00,34.0,26.0,29.78,SE,136,1.0,2.0,72,0.00,,,0.00,Meteo,2013-12-02 17:43:00,
2013-12-02 11:48:00,34.0,26.0,29.78,SSE,149,0.0,1.0,72,0.00,,,0.00,Meteo,2013-12-02 17:48:00,
2013-12-02 11:53:00,34.0,26.0,29.78,SE,143,0.0,1.0,72,0.00,,,0.00,Meteo,2013-12-02 17:53:00,
2013-12-02 11:58:00,34.0,26.0,29.78,East,101,0.0,1.0,73,0.00,,,0.00,Meteo,2013-12-02 17:58:00,
2013-12-02 12:03:00,34.0,27.0,29.77,ENE,77,1.0,2.0,74,0.00,,,0.00,Meteo,2013-12-02 18:03:00,
2013-12-02 12:08:00,35.0,28.0,29.77,ENE,77,1.0,2.0,74,0.00,,,0.00,Meteo,2013-12-02 18:08:00,
2013-12-02 12:13:00,35.0,28.0,29.77,ENE,77,0.0,2.0,74,0.00,,,0.00,Meteo,2013-12-02 18:13:00,
2013-12-02 12:19:00,34.0,27.0,29.77,East,87,2.0,3.0,74,0.00,,,0.00,Meteo,2013-12-02 18:19:00,
2013-12-02 12:24:00,34.0,27.0,29.77,East,89,1.0,2.0,75,0.00,,,0.00,Meteo,2013-12-02 18:24:00,
2013-12-02 12:29:00,34.0,27.0,29.77,East,91,0.0,1.0,75,0.00,,,0.00,Meteo,2013-12-02 18:29:00,
2013-12-02 12:34:00,34.0,27.0,29.76,East,100,1.0,2.0,76,0.00,,,0.00,Meteo,2013-12-02 18:34:00,
2013-12-02 12:39:00,34.0,27.0,29.76,East,84,1.0,1.0,76,0.00,,,0.00,Meteo,2013-12-02 18:39:00,
2013-12-02 12:44:00,34.0,28.0,29.76,East,84,1.0,2.0,77,0.00,,,0.00,Meteo,2013-12-02 18:44:00,
2013-12-02 12:49:00,34.0,28.0,29.76,ENE,76,2.0,4.0,77,0.00,,,0.00,Meteo,2013-12-02 18:49:00,
2013-12-02 12:54:00,34.0,28.0,29.75,ENE,71,2.0,2.0,78,0.00,,,0.00,Meteo,2013-12-02 18:54:00,
2013-12-02 12:59:00,34.0,28.0,29.75,East,86,2.0,4.0,78,0.00,,,0.00,Meteo,2013-12-02 18:59:00,
2013-12-02 13:05:00,34.0,28.0,29.75,ESE,103,0.0,1.0,78,0.00,,,0.00,Meteo,2013-12-02 19:05:00,
2013-12-02 13:10:00,34.0,28.0,29.75,East,88,2.0,4.0,79,0.00,,,0.00,Meteo,2013-12-02 19:10:00,
2013-12-02 13:15:00,35.0,29.0,29.75,ENE,63,2.0,3.0,78,0.00,,,0.00,Meteo,2013-12-02 19:15:00,
2013-12-02 13:20:00,35.0,29.0,29.75,East,86,2.0,3.0,79,0.00,,,0.00,Meteo,2013-12-02 19:20:00,
2013-12-02 13:25:00,35.0,29.0,29.75,ENE,77,2.0,3.0,79,0.00,,,0.00,Meteo,2013-12-02 19:25:00,
2013-12-02 13:30:00,35.0,29.0,29.75,East,88,3.0,3.0,79,0.00,,,0.00,Meteo,2013-12-02 19:30:00,
2013-12-02 13:35:00,35.0,29.0,29.74,ENE,71,1.0,3.0,79,0.00,,,0.00,Meteo,2013-12-02 19:35:00,
2013-12-02 13:40:00,35.0,29.0,29.74,ENE,68,2.0,4.0,79,0.00,,,0.00,Meteo,2013-12-02 19:40:00,
2013-12-02 13:45:00,35.0,29.0,29.74,ENE,73,2.0,4.0,80,0.00,,,0.00,Meteo,2013-12-02 19:45:00,
2013-12-02 13:50:00,35.0,29.0,29.74,East,79,1.0,2.0,80,0.00,,,0.00,Meteo,2013-12-02 19:50:00,
2013-12-02 13:55:00,35.0,29.0,29.73,ENE,74,2.0,3.0,80,0.00,,,0.00,Meteo,2013-12-02 19:55:00,
2013-12-02 14:00:00,35.0,30.0,29.73,East,85,2.0,3.0,81,0.00,,,0.00,Meteo,2013-12-02 20:00:00,
2013-12-02 14:05:00,35.0,29.0,29.73,NE,46,1.0,2.0,79,0.00,,,0.00,Meteo,2013-12-02 20:05:00,
2013-12-02 14:10:00,35.0,29.0,29.73,East,94,2.0,3.0,80,0.00,,,0.00,Meteo,2013-12-02 20:10:00,
2013-12-02 14:15:00,35.0,29.0,29.73,ENE,61,2.0,3.0,80,0.00,,,0.00,Meteo,2013-12-02 20:15:00,
2013-12-02 14:20:00,35.0,30.0,29.73,East,79,2.0,4.0,81,0.00,,,0.00,Meteo,2013-12-02 20:20:00,
2013-12-02 14:25:00,35.0,29.0,29.73,East,87,1.0,2.0,80,0.00,,,0.00,Meteo,2013-12-02 20:25:00,
2013-12-02 14:30:00,35.0,29.0,29.73,East,92,1.0,2.0,80,0.00,,,0.00,Meteo,2013-12-02 20:30:00,
2013-12-02 14:35:00,35.0,30.0,29.73,East,89,2.0,3.0,81,0.00,,,0.00,Meteo,2013-12-02 20:35:00,
2013-12-02 14:40:00,35.0,30.0,29.73,ENE,76,1.0,2.0,81,0.00,,,0.00,Meteo,2013-12-02 20:40:00,
2013-12-02 14:45:00,35.0,30.0,29.73,ENE,74,1.0,2.0,82,0.00,,,0.00,Meteo,2013-12-02 20:45:00,
2013-12-02 14:50:00,35.0,30.0,29.73,ENE,69,1.0,2.0,82,0.00,,,0.00,Meteo,2013-12-02 20:50:00,
2013-12-02 14:55:00,35.0,30.0,29.73,ENE,69,2.0,3.0,83,0.00,,,0.00,Meteo,2013-12-02 20:55:00,
2013-12-02 15:00:00,35.0,30.0,29.73,ENE,72,0.0,1.0,83,0.00,,,0.00,Meteo,2013-12-02 21:00:00,
2013-12-02 15:05:00,35.0,30.0,29.73,ENE,72,1.0,2.0,83,0.00,,,0.00,Meteo,2013-12-02 21:05:00,
2013-12-02 15:10:00,35.0,31.0,29.73,ENE,72,1.0,2.0,84,0.00,,,0.00,Meteo,2013-12-02 21:10:00,
2013-12-02 15:15:00,35.0,31.0,29.73,ENE,78,2.0,3.0,84,0.00,,,0.00,Meteo,2013-12-02 21:15:00,
2013-12-02 15:20:00,34.0,30.0,29.73,East,80,1.0,2.0,85,0.00,,,0.00,Meteo,2013-12-02 21:20:00,
2013-12-02 15:25:00,34.0,30.0,29.73,East,80,1.0,2.0,86,0.00,,,0.00,Meteo,2013-12-02 21:25:00,
2013-12-02 15:30:00,34.0,30.0,29.73,North,0,0.0,0.0,86,0.00,,,0.00,Meteo,2013-12-02 21:30:00,
2013-12-02 15:35:00,34.0,31.0,29.73,East,80,2.0,2.0,87,0.00,,,0.00,Meteo,2013-12-02 21:35:00,
2013-12-02 15:40:00,34.0,31.0,29.73,ENE,73,0.0,2.0,87,0.00,,,0.00,Meteo,2013-12-02 21:40:00,
2013-12-02 15:45:00,34.0,31.0,29.73,East,90,1.0,2.0,88,0.00,,,0.00,Meteo,2013-12-02 21:45:00,
2013-12-02 15:50:00,34.0,31.0,29.73,East,90,2.0,3.0,88,0.00,,,0.00,Meteo,2013-12-02 21:50:00,
2013-12-02 15:55:00,34.0,31.0,29.73,East,94,1.0,2.0,88,0.00,,,0.00,Meteo,2013-12-02 21:55:00,
2013-12-02 16:00:00,34.0,31.0,29.73,East,88,1.0,2.0,89,0.00,,,0.00,Meteo,2013-12-02 22:00:00,
2013-12-02 16:05:00,33.0,30.0,29.73,East,97,1.0,2.0,89,0.00,,,0.00,Meteo,2013-12-02 22:05:00,
2013-12-02 16:10:00,33.0,30.0,29.73,East,100,2.0,3.0,89,0.00,,,0.00,Meteo,2013-12-02 22:10:00,
2013-12-02 16:15:00,33.0,30.0,29.73,East,90,1.0,2.0,89,0.00,,,0.00,Meteo,2013-12-02 22:15:00,
2013-12-02 16:20:00,33.0,30.0,29.73,East,87,1.0,2.0,90,0.00,,,0.00,Meteo,2013-12-02 22:20:00,
2013-12-02 16:25:00,33.0,30.0,29.73,East,87,2.0,3.0,90,0.00,,,0.00,Meteo,2013-12-02 22:25:00,
2013-12-02 16:30:00,33.0,30.0,29.73,ENE,64,1.0,3.0,90,0.01,,,0.01,Meteo,2013-12-02 22:30:00,
2013-12-02 16:35:00,33.0,30.0,29.73,East,94,2.0,3.0,90,0.01,,,0.01,Meteo,2013-12-02 22:35:00,
2013-12-02 16:40:00,33.0,30.0,29.73,ENE,72,3.0,4.0,90,0.01,,,0.01,Meteo,2013-12-02 22:40:00,
2013-12-02 16:45:00,33.0,30.0,29.73,ENE,73,2.0,3.0,90,0.01,,,0.01,Meteo,2013-12-02 22:45:00,
2013-12-02 16:50:00,33.0,30.0,29.73,ENE,65,2.0,3.0,90,0.01,,,0.01,Meteo,2013-12-02 22:50:00,
2013-12-02 16:55:00,33.0,31.0,29.73,East,94,2.0,3.0,91,0.01,,,0.01,Meteo,2013-12-02 22:55:00,
2013-12-02 17:00:00,33.0,31.0,29.73,ENE,66,2.0,3.0,91,0.01,,,0.01,Meteo,2013-12-02 23:00:00,
2013-12-02 17:05:00,33.0,31.0,29.73,ENE,73,2.0,4.0,91,0.01,,,0.01,Meteo,2013-12-02 23:05:00,
2013-12-02 17:10:00,33.0,31.0,29.73,ENE,75,0.0,1.0,91,0.01,,,0.01,Meteo,2013-12-02 23:10:00,
2013-12-02 17:15:00,33.0,31.0,29.73,ENE,61,2.0,2.0,91,0.01,,,0.01,Meteo,2013-12-02 23:15:00,
2013-12-02 17:20:00,33.0,31.0,29.73,ENE,75,2.0,3.0,91,0.01,,,0.01,Meteo,2013-12-02 23:20:00,
2013-12-02 17:25:00,33.0,31.0,29.73,NE,56,1.0,1.0,91,0.01,,,0.01,Meteo,2013-12-02 23:25:00,
2013-12-02 17:30:00,33.0,31.0,29.73,East,82,1.0,2.0,92,0.00,,,0.01,Meteo,2013-12-02 23:30:00,
2013-12-02 17:35:00,33.0,31.0,29.74,ENE,61,1.0,2.0,92,0.00,,,0.01,Meteo,2013-12-02 23:35:00,
2013-12-02 17:40:00,33.0,31.0,29.73,ENE,65,2.0,3.0,92,0.00,,,0.01,Meteo,2013-12-02 23:40:00,
2013-12-02 17:45:00,33.0,31.0,29.73,ENE,67,2.0,3.0,92,0.01,,,0.02,Meteo,2013-12-02 23:45:00,
2013-12-02 17:50:00,33.0,31.0,29.73,East,80,2.0,3.0,92,0.01,,,0.02,Meteo,2013-12-02 23:50:00,
2013-12-02 17:55:00,33.0,31.0,29.73,NE,46,3.0,4.0,92,0.01,,,0.02,Meteo,2013-12-02 23:55:00,
2013-12-02 18:00:00,33.0,31.0,29.73,East,83,3.0,4.0,92,0.01,,,0.02,Meteo,2013-12-03 00:00:00,
2013-12-02 18:05:00,33.0,31.0,29.73,East,91,2.0,3.0,92,0.01,,,0.00,Meteo,2013-12-03 00:05:00,
2013-12-02 18:10:00,33.0,31.0,29.73,ENE,75,3.0,4.0,92,0.01,,,0.00,Meteo,2013-12-03 00:10:00,
2013-12-02 18:15:00,33.0,31.0,29.73,East,81,2.0,5.0,92,0.01,,,0.00,Meteo,2013-12-03 00:15:00,
2013-12-02 18:20:00,33.0,31.0,29.73,ENE,74,2.0,4.0,92,0.01,,,0.00,Meteo,2013-12-03 00:20:00,
2013-12-02 18:25:00,33.0,31.0,29.73,ENE,76,3.0,4.0,92,0.01,,,0.00,Meteo,2013-12-03 00:25:00,
2013-12-02 18:30:00,33.0,31.0,29.73,ENE,71,2.0,3.0,92,0.01,,,0.00,Meteo,2013-12-03 00:30:00,
2013-12-02 18:35:00,33.0,31.0,29.73,ENE,75,2.0,3.0,93,0.01,,,0.00,Meteo,2013-12-03 00:35:00,
2013-12-02 18:40:00,33.0,31.0,29.73,East,85,2.0,4.0,93,0.01,,,0.00,Meteo,2013-12-03 00:40:00,
2013-12-02 18:45:00,33.0,31.0,29.73,East,83,2.0,3.0,93,0.01,,,0.00,Meteo,2013-12-03 00:45:00,
2013-12-02 18:50:00,33.0,31.0,29.74,East,85,0.0,2.0,93,0.01,,,0.00,Meteo,2013-12-03 00:50:00,
2013-12-02 18:56:00,33.0,31.0,29.74,East,84,3.0,4.0,93,0.01,,,0.00,Meteo,2013-12-03 00:56:00,
2013-12-02 19:01:00,33.0,31.0,29.73,East,79,1.0,2.0,93,0.01,,,0.00,Meteo,2013-12-03 01:01:00,
2013-12-02 19:06:00,33.0,31.0,29.73,ENE,62,1.0,2.0,93,0.01,,,0.00,Meteo,2013-12-03 01:06:00,
2013-12-02 19:11:00,33.0,31.0,29.73,East,88,0.0,2.0,93,0.01,,,0.00,Meteo,2013-12-03 01:11:00,
2013-12-02 19:16:00,33.0,31.0,29.73,ENE,64,1.0,2.0,93,0.01,,,0.00,Meteo,2013-12-03 01:16:00,
2013-12-02 19:21:00,33.0,31.0,29.73,East,79,1.0,2.0,93,0.01,,,0.00,Meteo,2013-12-03 01:21:00,
2013-12-02 19:26:00,33.0,31.0,29.73,East,89,2.0,3.0,93,0.01,,,0.00,Meteo,2013-12-03 01:26:00,
2013-12-02 19:31:00,33.0,31.0,29.73,East,89,0.0,1.0,93,0.01,,,0.00,Meteo,2013-12-03 01:31:00,
2013-12-02 19:36:00,33.0,31.0,29.73,ENE,71,2.0,3.0,93,0.01,,,0.00,Meteo,2013-12-03 01:36:00,
2013-12-02 19:41:00,33.0,31.0,29.73,East,93,2.0,3.0,93,0.01,,,0.00,Meteo,2013-12-03 01:41:00,
2013-12-02 19:46:00,33.0,31.0,29.73,East,86,1.0,2.0,93,0.00,,,0.00,Meteo,2013-12-03 01:46:00,
2013-12-02 19:51:00,33.0,31.0,29.73,East,83,0.0,1.0,93,0.00,,,0.00,Meteo,2013-12-03 01:51:00,
2013-12-02 19:56:00,33.0,31.0,29.73,ENE,59,2.0,3.0,93,0.00,,,0.00,Meteo,2013-12-03 01:56:00,
2013-12-02 20:01:00,32.0,30.0,29.73,ENE,57,1.0,2.0,93,0.00,,,0.00,Meteo,2013-12-03 02:01:00,
2013-12-02 20:06:00,32.0,30.0,29.73,East,79,2.0,3.0,93,0.00,,,0.00,Meteo,2013-12-03 02:06:00,
2013-12-02 20:11:00,32.0,30.0,29.73,ESE,114,1.0,2.0,93,0.00,,,0.00,Meteo,2013-12-03 02:11:00,
2013-12-02 20:16:00,32.0,30.0,29.73,East,81,0.0,1.0,93,0.00,,,0.00,Meteo,2013-12-03 02:16:00,
2013-12-02 20:21:00,32.0,30.0,29.73,East,97,1.0,2.0,93,0.00,,,0.00,Meteo,2013-12-03 02:21:00,
2013-12-02 20:26:00,32.0,30.0,29.73,East,86,1.0,2.0,93,0.00,,,0.00,Meteo,2013-12-03 02:26:00,
2013-12-02 20:31:00,32.0,30.0,29.73,ENE,62,1.0,2.0,93,0.00,,,0.00,Meteo,2013-12-03 02:31:00,
2013-12-02 20:36:00,32.0,30.0,29.73,ESE,104,1.0,2.0,93,0.01,,,0.00,Meteo,2013-12-03 02:36:00,
2013-12-02 20:41:00,32.0,30.0,29.73,East,85,0.0,1.0,93,0.01,,,0.00,Meteo,2013-12-03 02:41:00,
2013-12-02 20:46:00,32.0,30.0,29.73,East,97,1.0,2.0,93,0.01,,,0.00,Meteo,2013-12-03 02:46:00,
2013-12-02 20:51:00,32.0,30.0,29.73,East,83,1.0,2.0,93,0.01,,,0.00,Meteo,2013-12-03 02:51:00,
2013-12-02 20:56:00,32.0,30.0,29.73,East,96,1.0,2.0,93,0.01,,,0.00,Meteo,2013-12-03 02:56:00,
2013-12-02 21:01:00,32.0,30.0,29.73,ESE,103,0.0,2.0,93,0.01,,,0.00,Meteo,2013-12-03 03:01:00,
2013-12-02 21:06:00,32.0,30.0,29.73,East,88,2.0,3.0,93,0.01,,,0.00,Meteo,2013-12-03 03:06:00,
2013-12-02 21:11:00,32.0,30.0,29.73,East,83,2.0,3.0,93,0.01,,,0.00,Meteo,2013-12-03 03:11:00,
2013-12-02 21:16:00,32.0,30.0,29.73,ENE,61,1.0,2.0,93,0.01,,,0.00,Meteo,2013-12-03 03:16:00,
2013-12-02 21:22:00,32.0,30.0,29.73,ENE,77,1.0,3.0,93,0.01,,,0.00,Meteo,2013-12-03 03:22:00,
2013-12-02 21:27:00,32.0,30.0,29.73,ENE,71,0.0,1.0,93,0.01,,,0.00,Meteo,2013-12-03 03:27:00,
2013-12-02 21:32:00,32.0,30.0,29.73,ENE,75,1.0,2.0,93,0.01,,,0.00,Meteo,2013-12-03 03:32:00,
2013-12-02 21:37:00,32.0,30.0,29.73,East,94,2.0,3.0,93,0.00,,,0.00,Meteo,2013-12-03 03:37:00,
2013-12-02 21:42:00,32.0,30.0,29.73,ENE,71,1.0,2.0,93,0.01,,,0.00,Meteo,2013-12-03 03:42:00,
2013-12-02 21:47:00,32.0,30.0,29.73,ENE,78,1.0,3.0,93,0.01,,,0.00,Meteo,2013-12-03 03:47:00,
2013-12-02 21:52:00,32.0,30.0,29.73,ENE,65,1.0,2.0,93,0.01,,,0.00,Meteo,2013-12-03 03:52:00,
2013-12-02 21:57:00,32.0,30.0,29.72,ENE,76,1.0,3.0,93,0.01,,,0.00,Meteo,2013-12-03 03:57:00,
2013-12-02 22:02:00,32.0,30.0,29.72,East,80,2.0,4.0,93,0.01,,,0.00,Meteo,2013-12-03 04:02:00,
2013-12-02 22:07:00,32.0,30.0,29.72,East,82,1.0,2.0,93,0.01,,,0.00,Meteo,2013-12-03 04:07:00,
2013-12-02 22:12:00,32.0,30.0,29.72,ENE,73,2.0,3.0,93,0.01,,,0.00,Meteo,2013-12-03 04:12:00,
2013-12-02 22:17:00,32.0,30.0,29.72,East,84,1.0,3.0,93,0.02,,,0.00,Meteo,2013-12-03 04:17:00,
2013-12-02 22:22:00,32.0,30.0,29.72,ENE,75,2.0,3.0,93,0.02,,,0.00,Meteo,2013-12-03 04:22:00,
2013-12-02 22:27:00,32.0,30.0,29.72,East,81,3.0,5.0,93,0.02,,,0.00,Meteo,2013-12-03 04:27:00,
2013-12-02 22:32:00,32.0,30.0,29.72,East,86,2.0,3.0,93,0.02,,,0.00,Meteo,2013-12-03 04:32:00,
2013-12-02 22:37:00,32.0,30.0,29.72,East,85,3.0,5.0,93,0.02,,,0.00,Meteo,2013-12-03 04:37:00,
2013-12-02 22:42:00,32.0,30.0,29.72,ENE,74,3.0,5.0,93,0.01,,,0.00,Meteo,2013-12-03 04:42:00,
2013-12-02 22:47:00,32.0,30.0,29.72,East,86,2.0,4.0,93,0.01,,,0.00,Meteo,2013-12-03 04:47:00,
2013-12-02 22:52:00,32.0,30.0,29.72,East,83,3.0,5.0,93,0.02,,,0.00,Meteo,2013-12-03 04:52:00,
2013-12-02 22:58:00,32.0,30.0,29.73,ENE,74,2.0,4.0,93,0.02,,,0.00,Meteo,2013-12-03 04:58:00,
2013-12-02 23:01:00,32.0,30.0,29.73,ENE,77,2.0,3.0,93,0.02,,,0.00,Meteo,2013-12-03 05:01:00,
2013-12-02 23:02:00,32.0,30.0,29.73,ENE,70,2.0,3.0,93,0.02,,,0.00,Meteo,2013-12-03 05:02:00,
2013-12-02 23:03:00,32.0,30.0,29.73,East,80,2.0,4.0,93,0.02,,,0.00,Meteo,2013-12-03 05:03:00,
2013-12-02 23:04:00,32.0,30.0,29.73,ENE,68,3.0,5.0,93,0.02,,,0.00,Meteo,2013-12-03 05:04:00,
2013-12-02 23:06:00,32.0,30.0,29.73,ENE,74,2.0,3.0,93,0.02,,,0.00,Meteo,2013-12-03 05:06:00,
2013-12-02 23:07:00,32.0,30.0,29.73,East,89,3.0,5.0,93,0.02,,,0.00,Meteo,2013-12-03 05:07:00,
2013-12-02 23:12:00,32.0,30.0,29.73,East,81,1.0,3.0,93,0.02,,,0.00,Meteo,2013-12-03 05:12:00,
2013-12-02 23:17:00,32.0,30.0,29.73,East,84,2.0,4.0,94,0.02,,,0.00,Meteo,2013-12-03 05:17:00,
2013-12-02 23:22:00,32.0,30.0,29.73,East,87,1.0,2.0,93,0.02,,,0.00,Meteo,2013-12-03 05:22:00,
2013-12-02 23:27:00,32.0,30.0,29.73,ENE,74,0.0,1.0,93,0.02,,,0.00,Meteo,2013-12-03 05:27:00,
2013-12-02 23:32:00,32.0,30.0,29.74,ENE,73,2.0,4.0,93,0.02,,,0.00,Meteo,2013-12-03 05:32:00,
2013-12-02 23:37:00,32.0,30.0,29.74,ENE,76,1.0,2.0,93,0.03,,,0.00,Meteo,2013-12-03 05:37:00,
2013-12-02 23:42:00,32.0,30.0,29.74,ENE,76,1.0,2.0,93,0.03,,,0.00,Meteo,2013-12-03 05:42:00,
2013-12-02 23:47:00,32.0,30.0,29.74,ENE,68,1.0,4.0,94,0.04,,,0.00,Meteo,2013-12-03 05:47:00,
2013-12-02 23:52:00,32.0,30.0,29.74,East,90,1.0,3.0,93,0.03,,,0.00,Meteo,2013-12-03 05:52:00,
2013-12-02 23:57:00,31.0,29.0,29.74,ENE,64,1.0,2.0,93,0.03,,,0.00,Meteo,2013-12-03 05:57:00,